GW1769 Weather Reports


time (UTC)temp
F
wind
direction
speed
knots
gust
knots
rain 1hr
in
rain 24hr
in
rain mn
in
humidity
%
barometer
mb
20260901173509 67 181 0.0 0.0 0.00 0.00 0.00 99 1012.3
20260901173005 67 179 0.0 0.0 0.00 0.00 0.00 99 1012.3
20260901172500 67 179 0.0 0.0 0.00 0.00 0.00 99 1012.3
20260901171958 67 181 0.0 0.0 0.00 0.00 0.00 99 1012.2
20260901171457 67 181 0.0 0.0 0.00 0.00 0.00 99 1012.4
20260901170956 67 179 0.0 0.0 0.00 0.00 0.00 99 1012.3
20260901170451 67 189 0.0 0.0 0.00 0.00 0.00 99 1012.0
20260901165950 67 177 0.0 0.0 0.00 0.00 0.00 99 1012.1
20260901165445 67 178 0.0 0.0 0.00 0.00 0.00 99 1012.3
20260901164941 67 171 0.0 0.0 0.00 0.00 0.00 99 1012.1
20260901164436 67 184 0.0 0.0 0.00 0.00 0.00 99 1012.0
20260901163931 67 177 0.0 0.0 0.00 0.00 0.00 99 1012.4
20260901163427 67 177 0.0 0.0 0.00 0.00 0.00 99 1012.3
20260901162919 68 177 0.0 0.0 0.00 0.00 0.00 99 1012.3
20260901162414 68 181 0.0 0.0 0.00 0.00 0.00 99 1012.2
20260901161908 68 183 0.0 0.0 0.00 0.00 0.00 99 1012.3
20260901161407 68 179 0.0 0.0 0.00 0.00 0.00 99 1012.2
20260901160902 68 185 0.0 0.0 0.00 0.00 0.00 99 1012.0
20260901160359 68 172 0.0 0.0 0.00 0.00 0.00 99 1012.2
20260901155858 68 186 0.0 0.0 0.00 0.00 0.00 99 1012.3
20260901155352 67 178 0.0 0.0 0.00 0.00 0.00 99 1012.1
20260901154843 66 176 0.0 0.0 0.00 0.00 0.00 99 1012.0
20260901154342 66 183 0.0 0.0 0.00 0.00 0.00 99 1012.0
20260901153837 66 172 0.0 0.0 0.00 0.00 0.00 99 1011.9
20260901153332 65 182 0.0 0.0 0.00 0.00 0.00 99 1011.7
20260901152831 65 186 0.0 0.0 0.00 0.00 0.00 99 1011.9
20260901152330 65 172 0.0 0.0 0.00 0.00 0.00 99 1011.8
20260901151826 65 187 0.0 0.9 0.00 0.00 0.00 99 1011.4
20260901151326 66 185 0.0 0.0 0.00 0.00 0.00 99 1011.6
20260901150820 65 183 0.0 0.0 0.00 0.00 0.00 99 1012.0
20260901150318 65 180 0.0 0.0 0.00 0.00 0.00 99 1012.6
20260901145815 65 178 0.0 0.0 0.00 0.00 0.00 99 1013.0
20260901145310 65 183 0.0 0.0 0.00 0.00 0.00 99 1012.8
20260901144805 66 184 0.0 0.0 0.00 0.00 0.00 99 1012.6
20260901144301 66 176 0.0 0.0 0.00 0.00 0.00 99 1012.6
20260901143756 66 177 0.0 0.0 0.00 0.00 0.00 99 1012.2
20260901143252 65 198 0.0 0.0 0.00 0.00 0.00 99 1012.7
20260901142749 65 177 0.0 0.0 0.00 0.00 0.00 99 1012.5
20260901142247 65 181 0.0 0.0 0.00 0.00 0.00 99 1012.5
20260901141742 65 172 0.0 0.0 0.00 0.00 0.00 99 1012.5
20260901141237 65 177 0.0 0.0 0.00 0.00 0.00 99 1012.5
20260901140736 65 184 0.0 0.0 0.00 0.00 0.00 99 1012.5
20260901140234 65 179 0.0 0.0 0.00 0.00 0.00 99 1012.5
20260901135729 65 178 0.0 0.0 0.00 0.00 0.00 99 1012.4
20260901135224 65 102 0.0 0.9 0.00 0.00 0.00 99 1012.3
20260901134720 65 182 0.0 0.0 0.00 0.00 0.00 99 1012.3
20260901134220 65 191 0.0 0.0 0.00 0.00 0.00 99 1012.2
20260901133720 65 189 0.0 0.0 0.00 0.00 0.00 99 1012.6
20260901133218 65 177 0.0 0.0 0.00 0.00 0.00 99 1012.4
20260901132717 65 174 0.0 0.0 0.00 0.00 0.00 99 1012.3
20260901132212 65 179 0.0 0.0 0.00 0.00 0.00 99 1012.6
20260901131707 65 175 0.0 0.0 0.00 0.00 0.00 99 1012.4
20260901131206 65 180 0.0 0.0 0.00 0.00 0.00 99 1012.6
20260901130702 65 181 0.0 0.0 0.00 0.00 0.00 99 1012.5
20260901130200 66 178 0.0 0.0 0.00 0.00 0.00 99 1012.7
20260901125658 66 181 0.0 0.0 0.00 0.00 0.00 99 1012.8
20260901125153 65 180 0.0 0.0 0.00 0.00 0.00 99 1012.7
20260901124648 65 179 0.0 0.0 0.00 0.00 0.00 99 1012.9
20260901124143 65 181 0.0 0.0 0.00 0.00 0.00 99 1013.1
20260901123638 65 178 0.0 0.0 0.00 0.00 0.00 99 1012.9
20260901123138 65 178 0.0 0.0 0.00 0.00 0.00 99 1013.1
20260901122636 65 179 0.0 0.0 0.00 0.00 0.00 99 1013.1
20260901122131 65 179 0.0 0.0 0.00 0.00 0.00 99 1012.9
20260901121626 65 185 0.0 0.0 0.00 0.00 0.00 99 1013.0
20260901121121 65 172 0.0 0.0 0.00 0.00 0.00 99 1013.3
20260901120621 65 176 0.0 0.0 0.00 0.00 0.00 99 1013.0
20260901120116 65 176 0.0 0.0 0.00 0.00 0.00 99 1013.4
20260901115611 65 180 0.0 0.0 0.00 0.00 0.00 99 1013.2
20260901115108 65 179 0.0 0.0 0.00 0.00 0.00 99 1012.8
20260901114604 65 183 0.0 0.0 0.00 0.00 0.00 99 1013.0
20260901114103 65 180 0.0 0.0 0.00 0.00 0.00 99 1013.1
20260901113602 65 187 0.0 0.0 0.00 0.00 0.00 99 1012.8
20260901113058 65 155 0.0 0.0 0.00 0.00 0.00 99 1012.8
20260901112557 65 182 0.0 0.0 0.00 0.00 0.00 99 1012.9
20260901112052 65 182 0.0 0.0 0.00 0.00 0.00 99 1012.7
20260901111551 65 179 0.0 0.0 0.00 0.00 0.00 99 1013.0
20260901111049 64 179 0.0 0.0 0.00 0.00 0.00 99 1013.0
20260901110545 64 181 0.0 0.0 0.00 0.00 0.00 99 1013.0
20260901110040 65 180 0.0 0.0 0.00 0.00 0.00 99 1012.8
20260901105537 64 179 0.0 0.0 0.00 0.00 0.00 99 1013.1
20260901105030 64 179 0.0 0.0 0.00 0.00 0.00 99 1013.1
20260901104526 64 179 0.0 0.0 0.00 0.00 0.00 99 1012.7
20260901104016 64 180 0.0 0.0 0.00 0.00 0.00 99 1012.7
20260901103516 64 178 0.0 0.0 0.00 0.00 0.00 99 1012.5
20260901103011 64 179 0.0 0.0 0.00 0.00 0.00 99 1012.6
20260901102506 64 160 0.0 0.0 0.00 0.00 0.00 99 1012.8
20260901102006 64 176 0.0 0.0 0.00 0.00 0.00 99 1012.2
20260901101501 64 177 0.0 0.0 0.00 0.00 0.00 99 1012.3
20260901100956 64 219 0.0 0.0 0.00 0.00 0.00 99 1012.1
20260901100450 64 179 0.0 0.0 0.00 0.00 0.00 99 1011.9
20260901095949 64 177 0.0 0.0 0.00 0.00 0.00 99 1012.5
20260901095449 64 182 0.0 0.0 0.00 0.00 0.00 99 1012.2
20260901094941 64 188 0.0 0.0 0.00 0.00 0.00 99 1012.4
20260901094441 64 186 0.0 0.0 0.00 0.00 0.00 99 1012.1
20260901093935 64 179 0.0 0.0 0.00 0.00 0.00 99 1012.2
20260901093430 64 177 0.0 0.0 0.00 0.00 0.00 99 1012.3
20260901092925 64 184 0.0 0.0 0.00 0.00 0.00 99 1012.3
20260901092421 64 182 0.0 0.0 0.00 0.00 0.00 99 1012.0
20260901091917 64 180 0.0 0.0 0.00 0.00 0.00 99 1012.1
20260901091416 64 176 0.0 0.0 0.00 0.00 0.00 99 1012.1
20260901090912 64 173 0.0 0.0 0.00 0.00 0.00 99 1012.3
20260901090411 64 179 0.0 0.0 0.00 0.00 0.00 99 1012.0
20260901085907 64 179 0.0 0.0 0.00 0.00 0.00 99 1012.3
20260901085403 65 178 0.0 0.0 0.00 0.00 0.00 99 1012.2
20260901084859 65 178 0.0 0.0 0.00 0.00 0.00 99 1012.2
20260901084355 65 179 0.0 0.0 0.00 0.00 0.00 99 1012.4
20260901083849 65 179 0.0 0.0 0.00 0.00 0.00 99 1012.6
20260901083344 64 177 0.0 0.0 0.00 0.00 0.00 99 1012.6
20260901082842 64 180 0.0 0.0 0.00 0.00 0.00 99 1012.6
20260901082338 64 179 0.0 0.0 0.00 0.00 0.00 99 1012.3
20260901081833 64 178 0.0 0.0 0.00 0.00 0.00 99 1012.5
20260901081328 65 180 0.0 0.0 0.00 0.00 0.00 99 1012.8
20260901080827 64 177 0.0 0.0 0.00 0.00 0.00 99 1012.7
20260901080322 64 180 0.0 0.0 0.00 0.00 0.00 99 1012.7
20260901075816 64 180 0.0 0.0 0.00 0.00 0.00 99 1012.9
20260901075311 64 177 0.0 0.0 0.00 0.00 0.00 99 1012.7
20260901074806 64 177 0.0 0.0 0.00 0.00 0.00 99 1012.8
20260901074301 64 177 0.0 0.0 0.00 0.00 0.00 99 1012.8
20260901073757 64 177 0.0 0.0 0.00 0.00 0.00 99 1013.0
20260901073252 64 181 0.0 0.0 0.00 0.00 0.00 99 1012.9
20260901072747 64 181 0.0 0.0 0.00 0.00 0.00 99 1013.0
20260901072242 64 178 0.0 0.0 0.00 0.00 0.00 99 1013.1
20260901071736 64 178 0.0 0.0 0.00 0.00 0.00 99 1013.0
20260901071231 64 184 0.0 0.0 0.00 0.00 0.00 99 1013.2
20260901070730 64 179 0.0 0.0 0.00 0.00 0.00 99 1013.0
20260901070225 64 179 0.0 0.0 0.00 0.00 0.00 99 1013.1
20260901065724 64 178 0.0 0.0 0.00 0.00 0.00 99 1013.1
20260901065220 64 179 0.0 0.0 0.00 0.00 0.00 99 1013.3
20260901064716 64 181 0.0 0.0 0.00 0.00 0.00 99 1013.3
20260901064212 64 182 0.0 0.0 0.00 0.00 0.00 99 1013.2
20260901063709 64 180 0.0 0.0 0.00 0.00 0.00 99 1012.9
20260901063205 65 181 0.0 0.0 0.00 0.00 0.00 99 1013.3
20260901062700 64 180 0.0 0.0 0.00 0.00 0.00 99 1013.3
20260901062156 64 181 0.0 0.0 0.00 0.00 0.00 99 1013.5
20260901061652 64 180 0.0 0.0 0.00 0.00 0.00 99 1013.5
20260901061152 64 183 0.0 0.0 0.00 0.00 0.00 99 1013.4
20260901060647 64 181 0.0 0.0 0.00 0.00 0.00 99 1013.5
20260901060142 64 178 0.0 0.0 0.00 0.00 0.00 99 1013.3
20260901055638 65 179 0.0 0.0 0.00 0.00 0.00 99 1013.7
20260901055134 65 179 0.0 0.0 0.00 0.00 0.00 99 1013.8
20260901054631 65 179 0.0 0.0 0.00 0.00 0.00 99 1014.1
20260901054127 65 179 0.0 0.0 0.00 0.00 0.00 99 1014.0
20260901053623 65 179 0.0 0.0 0.00 0.00 0.00 99 1014.2
20260901053118 65 181 0.0 0.0 0.00 0.00 0.00 99 1014.2
20260901052618 65 179 0.0 0.0 0.00 0.00 0.00 99 1013.9
20260901052114 65 181 0.0 0.0 0.00 0.00 0.00 99 1013.9
20260901051613 65 180 0.0 0.0 0.00 0.00 0.00 99 1014.1
20260901051112 65 179 0.0 0.0 0.00 0.00 0.00 99 1014.1
20260901050608 65 180 0.0 0.0 0.00 0.00 0.00 99 1014.2
20260901045557 65 179 0.0 0.0 0.00 0.00 0.00 99 1014.2
20260901045052 65 179 0.0 0.0 0.00 0.00 0.00 99 1013.9
20260901044548 65 179 0.0 0.0 0.00 0.00 0.00 99 1014.1
20260901044044 65 179 0.0 0.0 0.00 0.00 0.00 99 1014.0
20260901043539 65 181 0.0 0.0 0.00 0.00 0.00 99 1014.2
20260901043035 65 179 0.0 0.0 0.00 0.00 0.00 99 1014.0
20260901042534 65 179 0.0 0.0 0.00 0.00 0.00 99 1014.4
20260901042030 65 179 0.0 0.0 0.00 0.00 0.00 99 1014.2
20260901041525 65 180 0.0 0.0 0.00 0.00 0.00 99 1014.3
20260901041019 65 180 0.0 0.0 0.00 0.00 0.00 99 1014.3
20260901040513 65 180 0.0 0.0 0.00 0.00 0.00 99 1014.4
20260901040008 65 180 0.0 0.0 0.00 0.00 0.00 99 1014.2
20260901035506 65 180 0.0 0.0 0.00 0.00 0.00 99 1014.4
20260901035004 65 180 0.0 0.0 0.00 0.00 0.00 99 1014.1
20260901034504 65 179 0.0 0.0 0.00 0.00 0.00 99 1014.2
20260901033959 65 179 0.0 0.0 0.00 0.00 0.00 99 1013.9
20260901033458 65 179 0.0 0.0 0.00 0.00 0.00 99 1014.1
20260901032957 65 179 0.0 0.0 0.00 0.00 0.00 99 1014.2
20260901032452 65 179 0.0 0.0 0.00 0.00 0.00 99 1014.2
20260901031947 65 179 0.0 0.0 0.00 0.00 0.00 99 1014.1
20260901031443 65 177 0.0 0.0 0.00 0.00 0.00 99 1014.2
20260901030942 65 176 0.0 0.0 0.00 0.00 0.00 99 1014.2
20260901030438 65 177 0.0 0.0 0.00 0.00 0.00 99 1014.3
20260901025937 65 174 0.0 0.0 0.00 0.00 0.00 99 1014.2
20260901025432 65 177 0.0 0.0 0.00 0.00 0.00 99 1014.6
20260901024931 65 177 0.0 0.0 0.00 0.00 0.00 99 1014.7
20260901024426 65 177 0.0 0.0 0.00 0.00 0.00 99 1014.4
20260901023924 65 177 0.0 0.0 0.00 0.00 0.00 99 1014.8
20260901023419 65 176 0.0 0.0 0.00 0.00 0.00 99 1014.9
20260901022914 65 176 0.0 0.0 0.00 0.00 0.00 99 1014.7
20260901022410 65 179 0.0 0.0 0.00 0.00 0.00 99 1014.8
20260901021905 65 179 0.0 0.0 0.00 0.00 0.00 99 1014.9
20260901021401 65 179 0.0 0.0 0.00 0.00 0.00 99 1014.8
20260901020855 65 179 0.0 0.0 0.00 0.00 0.00 99 1015.0
20260901020350 65 177 0.0 0.0 0.00 0.00 0.00 99 1015.1
20260901015844 65 179 0.0 0.0 0.00 0.00 0.00 99 1015.0
20260901015341 65 179 0.0 0.0 0.00 0.00 0.00 99 1015.2
20260901014840 65 179 0.0 0.0 0.00 0.00 0.00 99 1015.0
20260901014336 65 180 0.0 0.0 0.00 0.00 0.00 99 1014.9
20260901013832 65 179 0.0 0.0 0.00 0.00 0.00 99 1014.8
20260901013327 65 179 0.0 0.0 0.00 0.00 0.00 99 1015.0
20260901012822 66 179 0.0 0.0 0.00 0.00 0.00 99 1014.9
20260901012317 66 180 0.0 0.0 0.00 0.00 0.00 99 1014.7
20260901011813 65 180 0.0 0.0 0.00 0.00 0.00 99 1014.9
20260901011308 65 180 0.0 0.0 0.00 0.00 0.00 99 1015.0
20260901010801 65 180 0.0 0.0 0.00 0.00 0.00 99 1014.9
20260901010256 66 181 0.0 0.0 0.00 0.00 0.00 99 1014.7
20260901005755 66 179 0.0 0.0 0.00 0.00 0.00 99 1014.8
20260901005250 65 179 0.0 0.0 0.00 0.00 0.00 99 1014.8
20260901004744 66 179 0.0 0.0 0.00 0.00 0.00 99 1015.0
20260901004239 66 179 0.0 0.0 0.00 0.00 0.00 99 1014.9
20260901003733 66 176 0.0 0.0 0.00 0.00 0.00 99 1015.0
20260901003233 65 179 0.0 0.0 0.00 0.00 0.00 99 1014.9
20260901002726 65 179 0.0 0.0 0.00 0.00 0.00 98 1014.6
20260901002222 65 181 0.0 0.0 0.00 0.00 0.00 98 1014.8
20260901001717 65 179 0.0 0.0 0.00 0.00 0.00 98 1015.0
20260901001212 65 179 0.0 0.0 0.00 0.00 0.00 98 1014.9
20260901000708 65 179 0.0 0.0 0.00 0.00 0.00 97 1014.9
20260901000203 65 180 0.0 0.0 0.00 0.00 0.00 97 1015.1
20260831235656 65 181 0.0 0.0 0.00 0.00 0.00 97 1015.2
20260831235152 65 181 0.0 0.0 0.00 0.00 0.00 97 1015.2
20260831234651 65 179 0.0 0.0 0.00 0.00 0.00 97 1015.0
20260831234147 66 179 0.0 0.0 0.00 0.00 0.00 97 1015.0
20260831233642 66 181 0.0 0.0 0.00 0.00 0.00 97 1015.0
20260831233137 66 185 0.0 0.0 0.00 0.00 0.00 97 1015.0
20260831232632 66 180 0.0 0.0 0.00 0.00 0.00 97 1015.0
20260831232128 66 179 0.0 0.0 0.00 0.00 0.00 97 1015.0
20260831231624 66 179 0.0 0.0 0.00 0.00 0.00 97 1015.0
20260831231120 66 179 0.0 0.0 0.00 0.00 0.00 97 1015.2
20260831230615 67 180 0.0 0.0 0.00 0.00 0.00 97 1015.2
20260831230110 67 180 0.0 0.0 0.00 0.00 0.00 97 1015.0
20260831225604 67 179 0.0 0.0 0.00 0.00 0.00 97 1015.4
20260831225059 67 179 0.0 0.0 0.00 0.00 0.00 97 1015.4
20260831224554 68 176 0.0 0.0 0.00 0.00 0.00 96 1015.4
20260831224049 68 180 0.0 0.0 0.00 0.00 0.00 96 1015.5
20260831223544 68 187 0.0 0.0 0.00 0.00 0.00 95 1015.5
20260831223041 68 180 0.0 0.0 0.00 0.00 0.00 95 1015.4
20260831222536 68 181 0.0 0.0 0.00 0.00 0.00 95 1015.1
20260831222031 68 179 0.0 0.0 0.00 0.00 0.00 94 1015.3
20260831221526 68 180 0.0 0.0 0.00 0.00 0.00 94 1015.2
20260831221021 69 172 0.0 0.0 0.00 0.00 0.00 93 1015.3
20260831220517 69 179 0.0 0.0 0.00 0.00 0.00 92 1015.4
20260831220012 69 179 0.0 0.0 0.00 0.00 0.00 92 1015.6
20260831215508 69 176 0.0 0.0 0.00 0.00 0.00 91 1015.4
20260831215003 69 179 0.0 0.0 0.00 0.00 0.00 91 1015.5
20260831214501 70 177 0.0 0.0 0.00 0.00 0.00 91 1015.6
20260831213956 70 173 0.0 0.0 0.00 0.00 0.00 90 1015.4
20260831213453 70 179 0.0 0.0 0.00 0.00 0.00 90 1015.5
20260831212952 70 179 0.0 0.0 0.00 0.00 0.00 90 1015.5
20260831212448 70 181 0.0 0.0 0.00 0.00 0.00 91 1015.5
20260831211943 70 179 0.0 0.0 0.00 0.00 0.00 90 1015.4
20260831211438 70 179 0.0 0.0 0.00 0.00 0.00 90 1015.3
20260831210937 70 174 0.0 0.0 0.00 0.00 0.00 89 1015.5
20260831210433 70 179 0.0 0.0 0.00 0.00 0.00 90 1015.6
20260831205929 70 179 0.0 0.0 0.00 0.00 0.00 88 1015.3
20260831205424 70 179 0.0 0.0 0.00 0.00 0.00 90 1015.5
20260831204919 70 180 0.0 0.0 0.00 0.00 0.00 90 1015.6
20260831204418 70 180 0.0 0.0 0.00 0.00 0.00 90 1015.3
20260831203912 70 179 0.0 0.0 0.00 0.00 0.00 90 1015.7
20260831203406 70 180 0.0 0.0 0.00 0.00 0.00 92 1015.5
20260831202904 69 179 0.0 0.0 0.00 0.00 0.00 91 1015.6
20260831202359 69 178 0.0 0.0 0.00 0.00 0.00 92 1015.5
20260831201854 69 180 0.0 0.0 0.00 0.00 0.00 92 1015.4
20260831201352 69 175 0.0 0.0 0.00 0.00 0.00 92 1015.6
20260831200849 68 168 0.0 0.0 0.00 0.00 0.00 92 1015.9
20260831200343 68 178 0.0 0.0 0.00 0.00 0.00 94 1015.6
20260831195838 68 177 0.0 0.0 0.00 0.00 0.00 94 1015.7
20260831195334 69 180 0.0 0.0 0.00 0.00 0.00 93 1015.7
20260831194830 69 180 0.0 0.0 0.00 0.00 0.00 91 1016.0
20260831194325 69 195 0.0 0.0 0.00 0.00 0.00 90 1015.7
20260831193824 70 173 0.0 0.0 0.00 0.00 0.00 88 1015.7
20260831193319 70 179 0.0 0.0 0.00 0.00 0.00 87 1015.8
20260831192814 71 180 0.0 0.0 0.00 0.00 0.00 86 1015.6
20260831192309 71 179 0.0 0.0 0.00 0.00 0.00 85 1016.0
20260831191805 71 174 0.0 0.0 0.00 0.00 0.00 84 1015.8
20260831191301 72 180 0.0 0.0 0.00 0.00 0.00 84 1015.8
20260831190756 72 171 0.0 0.0 0.00 0.00 0.00 83 1016.0
20260831190250 72 185 0.0 0.0 0.00 0.00 0.00 83 1015.9
20260831185750 73 174 0.0 0.0 0.00 0.00 0.00 82 1015.9
20260831185246 73 200 0.9 1.7 0.00 0.00 0.00 80 1016.0
20260831184745 74 174 0.9 0.9 0.00 0.00 0.00 80 1016.2
20260831184241 74 192 0.0 0.0 0.00 0.00 0.00 82 1016.2
20260831183736 73 177 0.9 0.9 0.00 0.00 0.00 80 1016.4
20260831183236 73 194 0.9 0.9 0.00 0.00 0.00 81 1016.4
20260831182734 73 161 0.0 0.9 0.00 0.00 0.00 82 1016.6
20260831182230 73 141 0.0 0.0 0.00 0.00 0.00 84 1016.5
20260831181730 73 179 0.0 0.9 0.00 0.00 0.00 81 1016.4
20260831181226 72 183 0.0 0.0 0.00 0.00 0.00 82 1016.7
20260831180720 72 172 0.0 0.0 0.00 0.00 0.00 86 1016.5
20260831180220 71 183 0.0 0.0 0.00 0.00 0.00 85 1016.7
20260831175719 71 168 0.0 0.0 0.00 0.00 0.00 84 1016.3
20260831175217 71 183 0.0 0.0 0.00 0.00 0.00 83 1016.7
20260831174716 72 181 0.0 0.0 0.00 0.00 0.00 82 1016.7
20260831174212 72 158 0.0 0.0 0.00 0.00 0.00 83 1016.9
20260831173711 72 141 0.0 0.0 0.00 0.00 0.00 82 1016.8